SV2BBO-2 Thessaloniki GR current weather conditions

sailwx.info

Wind from 167 at 3 knots gusting 3

Air temperature 24.4° C
Dewpoint 0.7° C

Last reported at 2017-May-22 16:58 UTC.
Time now 2017-May-22 17:28 UTC

Location: N 40°38' E 022°57'.
View on Google Maps.

See reports from other nearby stations

  
Tides and Currents Weather Stations Pressure Air Temp Water Temp Dewpoint Dewpoint Depression Visibility Wind Speed Wind Dir Waves Ship Positions
date/time (UTC)wind fromknots sea level pressurealtimeterstation pressurevisibilityair tempwater tempwave heightnotes
2017-May-22 17:08 084 1 gusting 3 23.9
2017-May-22 16:58 167 3 gusting 3 24.4
2017-May-22 16:48 173 3 gusting 4 23.9
2017-May-22 16:38 128 2 gusting 2 24.4
2017-May-22 16:28 073 23.9
2017-May-22 16:18 111 2 gusting 4 23.9
2017-May-22 16:08 145 5 gusting 7 24.4
2017-May-22 15:58 129 3 gusting 3 24.4
2017-May-22 15:48 113 4 gusting 5 25.0
2017-May-22 15:38 132 3 gusting 5 25.0
2017-May-22 15:28 118 3 gusting 5 25.0
2017-May-22 15:18 207 3 gusting 4 25.0
2017-May-22 15:08 164 6 gusting 7 25.0
2017-May-22 14:58 108 3 gusting 3 25.0
2017-May-22 14:48 178 4 gusting 6 25.6
2017-May-22 14:38 203 3 gusting 3 26.7
2017-May-22 14:28 286 3 gusting 3 26.7
2017-May-22 14:18 018 6 gusting 7 26.1
2017-May-22 14:08 348 5 gusting 8 26.1
2017-May-22 13:58 345 6 gusting 6 26.1
2017-May-22 13:48 342 8 gusting 9 26.1
2017-May-22 13:38 333 6 gusting 13 26.1
2017-May-22 13:28 285 4 gusting 6 26.7
2017-May-22 13:18 295 4 gusting 6 26.7
2017-May-22 13:08 333 4 gusting 6 26.1
2017-May-22 12:58 020 3 gusting 4 25.6
2017-May-22 12:48 245 4 gusting 5 25.0
2017-May-22 12:38 241 4 gusting 6 25.0
2017-May-22 12:28 216 5 gusting 6 25.6
2017-May-22 12:18 238 3 gusting 7 25.0
2017-May-22 12:08 237 5 gusting 7 25.6
2017-May-22 11:58 187 3 gusting 4 25.6
2017-May-22 11:48 221 4 gusting 6 25.6
2017-May-22 11:38 227 6 gusting 7 25.0
2017-May-22 11:28 203 4 gusting 4 24.4
2017-May-22 11:18 250 3 gusting 5 24.4
2017-May-22 11:08 254 5 gusting 5 24.4
2017-May-22 10:58 264 6 gusting 9 25.0
2017-May-22 10:48 259 4 gusting 6 25.0
2017-May-22 10:38 297 5 gusting 6 24.4
2017-May-22 10:28 282 4 gusting 7 24.4
2017-May-22 10:18 200 5 gusting 6 23.9
2017-May-22 10:08 218 5 gusting 5 23.3
2017-May-22 09:58 244 5 gusting 6 23.9
2017-May-22 09:48 250 4 gusting 5 23.3
2017-May-22 09:38 232 4 gusting 6 22.8
2017-May-22 09:28 242 3 gusting 3 22.8
2017-May-22 09:18 193 4 gusting 6 22.8
2017-May-22 09:08 219 3 gusting 5 22.8
2017-May-22 08:58 229 4 gusting 4 22.2
2017-May-22 08:48 224 6 gusting 6 22.8
2017-May-22 08:38 246 2 gusting 6 22.8
2017-May-22 08:28 213 3 gusting 6 22.8
2017-May-22 08:18 212 5 gusting 6 22.8
2017-May-22 08:08 237 5 gusting 6 22.2
2017-May-22 07:58 263 4 gusting 5 22.2
2017-May-22 07:48 230 3 gusting 5 22.8
2017-May-22 07:38 201 2 gusting 4 22.8
2017-May-22 07:28 211 3 gusting 4 22.8
2017-May-22 07:18 243 2 gusting 2 22.8
2017-May-22 07:08 247 0 gusting 2 22.8
2017-May-22 06:58 204 1 gusting 3 21.7
2017-May-22 06:48 214 2 gusting 5 21.1
2017-May-22 06:38 264 3 gusting 3 21.1
2017-May-22 06:28 207 1 gusting 4 22.2
2017-May-22 06:18 226 3 gusting 4 22.2
2017-May-22 06:08 264 2 gusting 3 21.7
2017-May-22 05:58 218 2 gusting 2 21.7
2017-May-22 05:48 200 21.7
2017-May-22 05:38 292 2 gusting 3 21.7
2017-May-22 05:28 277 2 gusting 4 20.6
2017-May-22 05:18 293 0 gusting 5 20.0
2017-May-22 05:08 326 1 gusting 3 19.4
2017-May-22 04:58 048 1 gusting 2 19.4
2017-May-22 04:48 058 18.9
2017-May-22 04:38 058 0 gusting 2 18.9
2017-May-22 04:28 075 2 gusting 3 18.9
2017-May-22 04:18 105 18.3
2017-May-22 04:08 075 18.3
2017-May-22 03:58 075 18.3
2017-May-22 03:48 075 18.3
2017-May-22 03:38 074 2 gusting 3 18.3
2017-May-22 03:28 073 17.8
2017-May-22 03:18 073 17.8
2017-May-22 03:08 073 0 17.2
2017-May-22 02:58 073 17.2
2017-May-22 02:48 073 17.2
2017-May-22 02:38 085 2 gusting 3 17.2
2017-May-22 02:28 102 1 gusting 2 17.8
2017-May-22 02:18 107 17.8
2017-May-22 02:08 145 17.8
2017-May-22 01:58 145 17.8
2017-May-22 01:48 145 17.8
2017-May-22 01:38 145 17.8
2017-May-22 01:28 145 17.8
2017-May-22 01:18 145 17.8
2017-May-22 01:08 145 17.8
2017-May-22 00:58 145 17.8
2017-May-22 00:48 179 17.8
2017-May-22 00:38 179 18.3
2017-May-22 00:28 197 18.3
2017-May-22 00:18 295 18.3
2017-May-22 00:08 290 18.9
2017-May-21 23:58 291 18.9
2017-May-21 23:48 310 18.3
2017-May-21 23:38 327 18.9
2017-May-21 23:28 330 18.9
2017-May-21 23:18 356 18.9
2017-May-21 23:08 007 18.9
2017-May-21 22:58 338 2 gusting 2 18.9
2017-May-21 22:48 008 3 gusting 4 18.9
2017-May-21 22:38 331 3 gusting 4 18.9
2017-May-21 22:28 295 2 gusting 4 18.9
2017-May-21 22:18 337 2 gusting 3 18.9
2017-May-21 22:08 327 19.4
2017-May-21 21:58 310 2 gusting 4 19.4
2017-May-21 21:48 001 2 gusting 3 19.4
2017-May-21 21:38 341 1 gusting 4 19.4
2017-May-21 21:28 319 0 gusting 3 19.4
2017-May-21 21:18 357 2 gusting 2 19.4
2017-May-21 21:08 005 0 gusting 3 19.4
2017-May-21 20:58 354 3 gusting 3 19.4
2017-May-21 20:48 057 2 gusting 3 19.4
2017-May-21 20:38 357 2 gusting 3 19.4
2017-May-21 20:28 351 2 gusting 5 19.4
2017-May-21 20:18 317 19.4
2017-May-21 20:08 010 3 gusting 3 19.4
2017-May-21 19:58 348 4 gusting 4 19.4
2017-May-21 19:48 026 0 gusting 2 19.4
2017-May-21 19:38 052 0 gusting 3 19.4
2017-May-21 19:28 087 19.4
2017-May-21 19:18 085 0 19.4
2017-May-21 19:08 077 0 gusting 3 19.4
2017-May-21 18:58 112 2 gusting 3 20.0
2017-May-21 18:48 153 4 gusting 5 20.6
2017-May-21 18:38 138 0 gusting 6 20.6
2017-May-21 18:28 056 2 gusting 3 20.0
2017-May-21 18:18 084 3 gusting 4 19.4
2017-May-21 18:08 105 3 gusting 5 19.4
2017-May-21 17:58 050 6 gusting 7 19.4
2017-May-21 17:48 051 6 gusting 8 19.4
2017-May-21 17:38 047 5 gusting 7 20.0
2017-May-21 17:28 060 3 gusting 4 20.0
2017-May-21 17:18 095 2 gusting 3 20.0
2017-May-21 17:08 056 5 gusting 7 20.0
2017-May-21 16:58 063 6 gusting 8 20.0
2017-May-21 16:48 055 6 gusting 6 19.4
2017-May-21 16:38 028 4 gusting 5 19.4
2017-May-21 16:28 062 6 gusting 7 19.4
2017-May-21 16:18 021 7 gusting 7 19.4
2017-May-21 16:08 046 8 gusting 10 19.4
2017-May-21 15:58 062 7 gusting 9 20.0
2017-May-21 15:48 045 6 gusting 7 20.6
2017-May-21 15:38 002 6 gusting 7 21.1
2017-May-21 15:28 348 6 gusting 7 21.1
2017-May-21 15:18 308 3 gusting 4 21.1
2017-May-21 15:08 269 21.7
2017-May-21 14:58 322 2 gusting 3 21.7
2017-May-21 14:48 021 4 gusting 6 21.7
2017-May-21 14:38 259 4 gusting 6 22.2
2017-May-21 14:28 050 10 gusting 13 21.7
2017-May-21 14:18 049 10 gusting 13 21.7
2017-May-21 14:08 239 5 gusting 9 21.7
2017-May-21 13:58 026 7 gusting 11 22.2
2017-May-21 13:48 029 4 gusting 10 22.2
2017-May-21 13:38 067 4 gusting 11 22.2
2017-May-21 13:28 064 2 gusting 6 22.8
2017-May-21 13:18 043 2 gusting 2 22.8
2017-May-21 13:08 127 4 gusting 5 22.8
2017-May-21 12:58 089 4 gusting 6 22.2
2017-May-21 12:48 079 2 gusting 4 22.2
2017-May-21 12:38 172 1 21.7
2017-May-21 12:28 275 2 gusting 3 21.7
2017-May-21 12:18 274 21.1
2017-May-21 12:08 208 1 gusting 4 21.7
2017-May-21 11:58 104 21.7
2017-May-21 11:48 105 0 gusting 2 21.1
2017-May-21 11:38 068 4 gusting 3 20.6
2017-May-21 11:28 119 4 gusting 6 21.1
2017-May-21 11:18 131 4 gusting 6 21.1
2017-May-21 11:08 093 6 gusting 8 22.2
2017-May-21 10:58 099 7 gusting 11 25.0
2017-May-21 10:48 082 6 gusting 12 26.7
2017-May-21 10:38 147 5 gusting 7 27.2
2017-May-21 10:28 026 10 gusting 18 27.2
2017-May-21 10:18 195 3 gusting 3 27.2
2017-May-21 10:08 198 3 gusting 4 26.7
2017-May-21 09:58 207 6 gusting 6 26.7
2017-May-21 09:48 176 4 gusting 6 26.7
2017-May-21 09:38 214 5 gusting 5 26.7
2017-May-21 09:28 217 5 gusting 7 27.2
2017-May-21 09:18 220 5 gusting 7 27.2
2017-May-21 09:08 257 2 gusting 3 26.7
2017-May-21 08:58 223 3 gusting 5 27.2
2017-May-21 08:48 251 4 gusting 4 27.2
2017-May-21 08:38 281 5 gusting 8 27.2
2017-May-21 08:28 352 5 gusting 6 27.2
2017-May-21 08:18 307 3 gusting 8 27.2
2017-May-21 08:08 311 5 gusting 7 27.2
2017-May-21 07:58 017 3 gusting 4 26.7
2017-May-21 07:48 063 3 gusting 3 26.7
2017-May-21 07:38 015 5 gusting 6 26.1
2017-May-21 07:28 023 6 gusting 9 25.6
2017-May-21 07:18 018 5 gusting 6 25.6
2017-May-21 07:08 322 3 gusting 4 26.1
2017-May-21 06:58 334 6 gusting 7 25.6
2017-May-21 06:48 023 6 gusting 8 25.0
2017-May-21 06:38 346 6 gusting 7 25.0
2017-May-21 06:28 352 3 gusting 3 24.4
2017-May-21 06:18 345 5 gusting 6 23.9
2017-May-21 06:08 008 5 gusting 6 23.9
2017-May-21 05:58 003 6 gusting 7 23.3
2017-May-21 05:48 006 6 gusting 6 23.3
2017-May-21 05:38 015 4 gusting 5 22.8
2017-May-21 05:28 355 5 gusting 6 22.2
2017-May-21 05:18 010 3 gusting 4 21.7
2017-May-21 05:08 345 20.6
2017-May-21 04:58 298 2 gusting 2 20.0
2017-May-21 04:48 209 20.0
2017-May-21 04:38 189 2 gusting 3 19.4
2017-May-21 04:28 030 0 gusting 2 19.4
2017-May-21 04:18 029 19.4
2017-May-21 04:08 029 19.4
2017-May-21 03:58 029 1 gusting 2 18.9
2017-May-21 03:48 029 2 gusting 3 18.9
2017-May-21 03:38 029 18.9
2017-May-21 03:28 029 18.9
2017-May-21 03:18 029 18.9
2017-May-21 03:08 029 19.4
2017-May-21 02:58 029 18.9
2017-May-21 02:48 351 0 gusting 3 19.4
2017-May-21 02:38 332 19.4
2017-May-21 02:28 331 18.9
2017-May-21 02:18 325 0 gusting 3 18.9
2017-May-21 02:08 325 19.4
2017-May-21 01:58 031 0 gusting 2 20.0
2017-May-21 01:48 031 20.0
2017-May-21 01:38 031 2 gusting 3 19.4
2017-May-21 01:28 031 19.4
2017-May-21 01:18 031 2 gusting 2 19.4
2017-May-21 01:08 020 19.4
2017-May-21 00:58 357 19.4
2017-May-21 00:48 357 20.0
2017-May-21 00:38 357 20.0
2017-May-21 00:28 357 20.0
2017-May-21 00:18 20.0
2017-May-21 00:08 019 20.0
2017-May-20 23:58 036 20.0
2017-May-20 23:48 036 20.0
2017-May-20 23:38 027 19.4
2017-May-20 23:28 027 20.0
2017-May-20 23:18 027 20.0
2017-May-20 23:08 026 20.0
2017-May-20 22:58 019 20.6
2017-May-20 22:48 019 20.6
2017-May-20 22:38 019 0 gusting 2 20.6
2017-May-20 22:28 019 20.6
2017-May-20 22:18 018 2 gusting 2 20.6
2017-May-20 22:08 017 0 gusting 3 20.6
2017-May-20 21:58 078 20.0
2017-May-20 21:48 077 1 gusting 2 20.0
2017-May-20 21:38 056 3 gusting 4 20.0
2017-May-20 21:28 035 21.1
2017-May-20 21:18 033 21.1
2017-May-20 21:08 047 3 gusting 3 21.1
2017-May-20 20:58 111 1 gusting 3 21.7
2017-May-20 20:48 062 1 22.2
2017-May-20 20:38 117 2 gusting 3 22.2
2017-May-20 20:28 060 0 21.7
2017-May-20 20:18 053 2 gusting 3 21.1
2017-May-20 20:08 046 4 gusting 5 21.1
2017-May-20 19:58 097 0 gusting 3 21.7
2017-May-20 19:48 086 0 gusting 3 22.2
2017-May-20 19:38 147 2 gusting 3 22.2
2017-May-20 19:28 130 2 gusting 4 22.2
2017-May-20 19:18 139 3 gusting 3 22.2
2017-May-20 19:08 214 3 gusting 3 22.2
2017-May-20 18:58 232 4 gusting 5 22.2
2017-May-20 18:48 214 3 gusting 3 22.2
2017-May-20 18:38 209 3 gusting 5 22.2
2017-May-20 18:28 199 4 gusting 6 22.2
2017-May-20 18:18 198 5 gusting 6 22.2
2017-May-20 18:08 233 2 gusting 3 22.2
2017-May-20 17:58 190 2 gusting 3 22.2
2017-May-20 17:48 226 3 gusting 4 22.2
2017-May-20 17:38 203 3 gusting 4 22.2
2017-May-20 17:28 230 4 gusting 3 22.2
2017-May-20 17:18 206 3 gusting 3 22.8
2017-May-20 17:08 221 4 gusting 6 22.8